Flag for Switzerland Weather past 2 weeks in Cham, Zug, Switzerland

Now
62 °F

Cool.


Feels Like: 62 °F
Forecast: 52 / 70 °F
Wind: 1 mph from South

Location: Zurich Town / Ville.

Current Time: Sep 30, 2014 at 12:13:31 PM

Latest Report: Sep 30, 2014 at 11:00 AM


Visibility: N/A

Pressure: 30.31 "Hg

Humidity: 84%

Dew point: 57 °F

Location of ChamLocation

Historic Weather in Cham — Graph

°F

Cham temperature yesterday

Maximum temperature yesterday: 72 °F (at 4:00 PM)
Minimum temperature yesterday: 53 °F (at 7:00 AM)
Average temperature yesterday: 61 °F

Past Weeks' High & Low Weather Summary

 TemperatureHumidityPressure
High73 °F (Sep 20, 3:00 PM)100% (Sep 16, 7:00 AM)30.35 "Hg (Sep 16, 7:00 AM)
Low41 °F (Sep 23, 6:00 AM)47% (Sep 23, 4:00 PM)29.81 "Hg (Sep 17, 5:00 PM)
Average58 °F83%30.09 "Hg
* Reported Sep 15 10:00 AM — Sep 30 10:00 AM, Cham, Weather by CustomWeather, © 2014

Note: Actual official high and low records may vary slightly from our data, if they occured in-between our weather recording intervals... More about our weather records

Advertising

Cham weather history for previous 24 hours

 ConditionsComfort  
Time TempWeatherWind HumidityBarometerVisibility
10:00 AM
Sep 30
60 °FCool.2 mph88%30.31 "HgN/A
9:00 AM60 °FCool.1 mph89%30.30 "HgN/A
8:00 AM59 °FPartly sunny.No wind89%30.30 "HgN/A
7:00 AM59 °FCool.1 mph89%30.29 "HgN/A
6:00 AM60 °FCool.1 mph86%30.29 "HgN/A
5:00 AM58 °FCool.No wind91%30.30 "HgN/A
4:00 AM58 °FCool.No wind90%30.30 "HgN/A
3:00 AM60 °FCool.1 mph85%30.29 "HgN/A
2:00 AM61 °FCool.2 mph87%30.29 "HgN/A
1:00 AM61 °FCool.No wind83%30.29 "HgN/A
12:00 AM61 °FCool.1 mph79%30.29 "HgN/A
11:00 PM
Sep 29
62 °FCool.1 mph79%30.29 "HgN/A
10:00 PM64 °FMild.3 mph68%30.27 "HgN/A
9:00 PM63 °FMild.2 mph78%30.27 "HgN/A
8:00 PM64 °FPassing clouds.2 mph79%30.26 "HgN/A
7:00 PM67 °FMild.2 mph67%30.24 "HgN/A
6:00 PM69 °FMild.2 mph66%30.22 "HgN/A
5:00 PM72 °FMild.2 mph49%30.20 "HgN/A
4:00 PM72 °FMild.1 mph50%30.21 "HgN/A
3:00 PM72 °FMild.3 mph57%30.21 "HgN/A
1:00 PM67 °FMild.1 mph67%30.26 "HgN/A
12:00 PM64 °FMild.2 mph82%30.29 "HgN/A
Weather by CustomWeather, © 2014

See weather overviewHow to use our weather pages